RH
82 78 76 89 98 97 100 99 99 95 93 94 90 84 85 97 90 86 71 46 45 50 37 49 42 37 37 45 43 40 66 64 50 40 34 23 25 20 16 16 14 15 17 30 50
79 75 77 81 84 94 98 100 99 96 94 94 90 87 89 89 85 65 50 43 52 66 58 43 36 34 42 41 48 56 64 57 35 29 29 24 24 22 21 19 18 17 17 19 54
76 84 73 77 77 84 92 98 100 98 96 94 88 87 90 82 68 41 57 43 68 69 50 41 41 42 55 47 42 49 66 46 40 33 29 28 25 21 24 26 20 20 19 21 43
78 78 80 76 79 80 89 99 99 97 94 92 87 88 86 80 67 46 61 75 71 60 51 47 49 59 67 61 39 46 38 37 37 33 34 34 28 28 25 25 25 24 27 38 47
86 84 78 79 80 82 86 96 100 99 91 92 89 86 78 64 51 60 67 63 56 52 49 48 57 60 64 53 48 52 46 37 33 34 34 31 33 31 29 28 31 25 28 40 53
88 86 83 81 82 82 87 96 99 100 94 88 88 86 82 73 41 50 55 52 44 44 46 47 58 52 65 68 68 51 49 49 46 45 34 35 34 33 29 24 28 30 32 52 54
91 89 87 84 83 82 87 100 98 100 86 93 91 83 68 57 40 41 45 44 47 48 48 51 57 68 69 70 54 60 62 59 54 44 45 37 45 40 28 24 26 30 31 53 54
90 76 88 87 86 83 90 97 99 93 86 91 84 84 70 53 51 46 47 48 48 52 60 58 64 64 75 67 63 66 70 86 49 43 42 45 62 39 28 26 27 32 35 62 50
78 76 82 89 88 84 95 99 100 88 79 96 83 82 63 58 53 48 47 42 44 61 60 58 65 81 77 92 85 67 88 81 67 45 48 49 58 45 31 29 29 29 56 66 57
85 83 72 90 87 86 98 95 96 98 88 93 86 81 57 54 47 40 40 40 46 57 67 73 76 87 90 96 92 80 81 64 61 59 81 64 59 49 38 36 42 56 58 60 51
87 76 74 76 89 94 94 94 93 94 95 77 67 55 49 49 50 48 40 48 50 53 76 80 98 94 68 66 73 69 76 77 53 48 90 68 56 49 54 76 52 66 73 71 58
97 83 76 89 78 85 94 94 71 84 92 78 63 55 53 54 52 45 44 56 60 74 66 94 93 64 60 58 81 92 84 70 53 65 85 65 56 50 56 80 59 52 59 67 71
97 84 76 77 78 98 89 87 81 71 85 69 58 63 57 56 49 50 48 49 55 61 56 95 67 48 74 82 93 76 74 62 82 90 67 74 77 64 50 62 58 54 57 58 78
70 89 87 90 88 93 96 82 81 76 100 85 68 60 57 56 60 36 42 50 46 57 49 61 60 64 67 82 70 78 56 59 95 98 100 72 96 82 85 84 72 59 62 72 96
79 79 89 78 90 80 93 98 80 77 98 89 78 62 55 60 50 49 46 53 58 48 54 61 65 91 82 73 75 71 65 76 80 92 100 98 91 98 95 86 70 73 76 93 96
89 78 91 80 73 93 83 81 77 99 97 99 78 78 71 61 41 48 56 53 54 61 54 62 51 73 71 71 71 69 78 69 68 84 99 100 99 100 100 98 87 89 97 96 97
81 87 74 69 78 88 82 80 100 98 91 87 75 65 74 61 60 47 50 67 79 91 83 62 64 62 74 91 83 84 94 97 98 99 98 100 98 100 98 87 87 94 98 97 96
74 80 75 70 80 85 82 98 98 93 99 61 59 59 90 54 58 51 50 60 51 55 89 88 94 78 83 92 96 94 96 99 96 97 99 78 98 100 92 86 80 90 95 90 91
80 77 71 74 82 79 91 99 100 99 77 61 57 59 58 51 51 48 51 60 56 55 98 89 97 75 82 82 84 85 92 56 98 77 97 100 100 96 88 88 76 78 88 96 92
77 68 82 76 78 75 95 100 100 73 65 57 73 48 54 49 49 52 51 54 66 58 67 93 98 86 84 84 81 89 65 77 86 96 96 91 90 100 99 92 81 75 80 78 74
71 76 89 80 71 88 97 100 98 59 58 72 74 48 38 46 61 92 62 66 62 66 75 85 100 97 90 83 74 74 62 55 50 59 71 86 97 80 87 73 74 78 65 54 51
73 90 90 74 93 95 100 97 89 66 51 57 54 44 42 43 55 61 71 72 62 78 96 77 93 97 68 56 52 60 52 46 78 62 68 86 92 55 52 53 54 57 49 54 43
97 98 86 82 87 90 97 84 82 65 59 60 56 46 45 55 64 57 58 61 51 57 65 55 72 94 70 61 53 55 44 45 59 78 68 86 85 44 50 49 45 45 44 44 44
87 99 93 92 82 65 91 88 71 62 59 55 51 41 47 49 48 57 58 59 58 52 64 63 66 82 90 79 68 69 51 47 66 78 64 67 64 54 54 52 49 47 47 49 51
79 86 74 94 79 74 80 76 54 66 56 53 49 46 48 52 53 59 52 53 52 45 50 55 83 83 53 53 57 58 55 49 58 50 70 58 57 52 52 51 49 46 45 49 52
75 72 65 73 74 74 80 66 55 61 67 57 54 46 52 62 58 56 49 52 55 41 45 48 81 62 56 48 52 61 55 56 56 44 47 48 54 44 44 43 47 46 47 51 52
71 59 57 84 80 66 59 59 58 60 58 53 55 54 64 65 50 45 43 46 48 55 52 54 72 81 76 59 57 68 58 55 53 56 46 59 52 44 45 47 52 51 53 56 56
Wind_Speed
21 20 20 22 22 21 20 19 15 12 9 9 7 7 8 9 9 9 10 3 5 6 4 3 4 5 5 5 8 7 6 12 15 17 18 16 19 19 19 19 14 17 10 3 12
21 21 20 21 22 23 26 27 18 14 11 9 6 6 8 6 10 17 11 7 7 6 5 3 4 3 4 8 4 7 9 13 12 15 16 16 16 16 19 20 18 13 14 12 14
22 21 20 21 22 22 24 25 21 15 11 10 6 6 7 4 10 3 9 11 10 6 2 0 2 4 4 8 11 12 18 14 17 19 18 16 19 20 19 20 16 14 10 14 7
21 22 21 20 22 23 23 25 15 18 13 10 7 7 5 6 3 10 11 11 9 6 4 1 1 1 2 7 8 16 18 17 17 15 16 19 19 21 21 19 18 15 16 8 6
22 21 22 22 22 24 23 24 26 19 13 10 7 8 4 6 7 17 12 11 7 5 6 5 6 5 7 8 9 15 16 18 16 16 18 17 20 20 23 16 19 21 16 10 6
23 21 22 22 21 24 24 23 27 18 15 10 9 9 4 8 7 14 14 10 4 7 7 6 4 5 6 7 11 9 16 17 16 20 19 19 19 17 21 17 20 21 18 8 9
21 21 20 22 22 23 24 25 11 17 13 9 12 9 6 8 4 11 11 8 5 5 4 0 1 5 2 7 7 14 17 19 20 15 19 15 23 21 16 20 21 20 19 10 18
22 23 19 19 22 25 27 14 17 17 12 10 12 7 5 6 7 10 9 7 7 5 1 2 5 3 5 8 7 7 13 13 9 14 17 14 25 18 16 17 22 19 16 7 19
21 21 20 17 18 21 16 16 15 13 12 11 8 6 3 6 7 11 10 10 12 6 4 4 6 5 5 3 5 9 7 12 14 13 13 17 23 18 17 17 18 19 5 6 18
22 17 22 16 15 15 8 6 10 10 12 8 1 5 7 6 9 8 7 8 5 6 5 3 1 1 3 5 5 9 8 13 16 4 12 15 20 17 12 16 19 6 8 13 16
22 14 18 14 17 17 6 12 4 2 3 4 9 1 10 8 7 6 10 10 7 6 4 5 2 7 10 11 15 18 18 18 18 11 5 16 14 16 4 16 16 11 11 8 8
17 16 12 10 15 7 20 2 2 5 3 13 11 7 7 1 4 7 10 7 8 7 8 2 9 11 12 14 15 17 18 19 15 9 8 8 14 12 15 21 12 9 6 6 6
17 9 9 9 8 5 8 1 1 2 1 8 11 6 2 4 3 11 8 6 6 7 8 8 9 9 9 13 13 11 16 15 8 10 7 6 12 16 6 6 6 5 6 7 6
19 16 12 6 4 5 3 6 4 3 2 6 5 4 6 3 3 5 9 4 5 4 7 7 14 10 12 10 9 11 6 14 5 2 4 12 2 3 6 12 12 9 7 5 11
10 2 11 8 5 1 5 8 5 3 4 5 6 3 8 5 7 6 4 4 6 5 3 4 6 0 8 6 3 7 11 14 9 8 3 7 3 1 5 5 9 7 7 8 8
2 8 8 2 2 2 4 7 1 2 2 4 4 6 7 7 4 6 5 3 5 4 7 12 8 4 5 6 8 10 9 10 9 7 3 3 2 2 4 4 5 9 8 11 12
13 10 5 3 3 9 9 2 2 3 3 5 6 7 4 6 5 7 7 6 2 2 3 4 10 1 2 5 5 6 5 3 3 1 2 1 1 1 7 5 2 11 10 12 10
9 9 4 9 8 12 7 1 3 6 6 5 6 8 2 8 4 5 3 2 8 5 3 3 3 2 3 2 3 3 3 3 4 3 2 3 6 6 9 12 14 15 14 14 12
8 6 7 6 7 5 2 1 5 3 3 6 8 5 5 3 1 4 4 2 2 2 2 5 2 4 2 3 3 2 4 5 3 5 1 4 1 11 11 9 17 15 13 12 8
4 5 15 7 8 5 1 4 3 5 7 2 3 1 4 4 2 2 5 4 2 3 6 2 3 3 5 4 9 6 8 4 1 5 4 3 5 4 8 10 15 14 13 9 9
1 3 12 8 5 3 3 4 3 5 3 3 6 4 8 4 2 2 3 3 3 4 3 1 1 1 4 2 4 2 4 3 2 3 2 3 3 5 10 10 14 11 11 11 11
4 3 5 3 3 2 3 5 3 8 2 3 5 9 4 3 3 4 5 4 1 2 2 4 2 1 0 4 3 4 6 5 1 5 6 5 4 7 7 9 13 11 12 11 9
3 1 6 6 2 2 2 3 4 7 6 6 4 5 5 4 2 4 4 3 3 4 4 4 2 3 3 2 1 4 8 5 2 2 3 4 3 5 8 10 10 11 10 8 8
3 2 2 2 3 2 2 4 3 2 2 5 3 0 2 3 3 3 4 1 4 3 4 3 5 4 3 2 3 5 9 7 4 5 9 10 12 8 8 8 9 9 8 7 8
2 3 2 1 2 6 3 2 3 4 2 3 1 2 5 3 5 4 3 4 5 1 2 4 3 5 4 5 4 6 8 11 8 7 8 10 12 9 9 9 8 8 7 7 7
1 3 2 4 5 5 1 1 6 4 6 5 4 6 11 7 6 5 3 6 5 2 2 0 1 2 4 6 5 7 10 9 9 10 10 12 10 9 8 8 7 8 8 8 7
1 1 2 3 1 1 2 4 6 5 1 5 8 6 8 5 6 4 3 4 4 5 5 3 1 3 2 4 6 4 5 6 3 7 4 5 7 7 7 8 7 7 8 7 7
Wind_Direction
331 332 332 324 324 318 330 249 233 233 232 234 260 279 250 251 262 260 245 224 136 148 192 213 248 249 278 261 259 275 247 247 247 248 267 277 285 289 291 285 273 267 266 65 68
326 327 327 328 321 320 321 328 230 220 225 220 241 255 253 248 260 263 243 219 181 160 207 216 268 349 266 252 223 206 234 253 262 275 283 289 283 280 280 281 275 268 276 269 126
320 321 324 324 322 314 309 317 233 214 222 213 221 220 232 241 270 164 144 153 159 166 137 109 306 270 294 279 249 227 245 275 283 293 293 289 283 286 281 273 271 278 270 270 159
316 318 318 320 320 317 310 308 257 212 202 210 208 202 222 238 262 129 142 151 161 182 184 175 302 264 228 271 246 262 266 268 275 277 284 285 290 286 274 276 296 305 311 324 259
304 308 315 316 319 318 312 310 310 199 192 196 193 187 189 215 247 152 153 156 168 185 200 206 223 258 253 265 275 270 274 274 266 257 264 269 270 274 276 291 294 294 295 312 328
299 303 309 317 319 319 316 308 309 192 171 181 174 177 233 238 108 151 161 165 201 200 211 226 214 269 298 262 270 284 293 292 280 279 254 255 260 259 266 276 273 281 288 328 270
299 298 305 314 318 320 313 310 225 175 161 170 166 184 246 233 182 162 171 189 201 218 247 203 334 178 167 256 282 296 278 276 268 261 254 267 255 247 250 260 264 263 271 290 285
300 302 301 309 318 324 317 289 177 172 152 184 154 198 246 159 185 173 182 213 207 207 207 300 257 193 230 316 291 278 260 269 257 250 244 230 261 247 249 242 250 260 261 267 278
304 298 294 302 316 331 351 136 155 148 139 171 136 227 238 155 197 198 202 218 177 176 189 124 137 157 165 238 284 239 261 242 268 238 265 224 253 247 245 252 241 248 248 273 270
292 287 297 296 312 320 319 105 116 134 141 159 52 187 220 192 168 162 187 201 184 162 158 167 133 208 249 195 248 302 297 287 283 306 320 245 243 249 258 254 251 194 265 225 250
300 307 279 296 308 299 233 117 93 55 284 179 179 232 127 94 123 183 182 187 210 203 223 134 193 234 240 229 248 270 282 287 286 289 250 244 243 241 245 327 251 160 230 265 241
298 304 305 298 320 306 176 234 179 116 222 232 255 203 91 24 154 168 174 208 183 210 224 152 245 247 258 263 270 272 274 280 283 323 182 267 238 247 202 207 229 218 220 258 269
308 297 307 289 315 133 180 289 201 132 239 160 200 193 168 193 218 168 193 199 254 232 223 226 260 282 265 252 257 258 259 272 301 326 249 248 250 249 202 3 314 213 233 267 223
306 285 259 254 274 176 184 254 229 64 199 141 163 174 168 234 216 159 200 297 208 255 254 263 254 245 265 256 279 271 292 288 225 288 268 198 249 91 336 285 259 217 224 240 128
302 259 205 201 352 247 74 167 196 219 190 119 122 153 154 194 132 180 168 187 267 262 225 254 316 300 292 287 301 259 321 305 233 257 279 209 231 109 323 254 197 188 197 135 129
35 160 145 192 231 79 107 129 95 212 112 118 127 160 157 209 177 131 193 213 284 299 258 264 251 220 277 307 272 305 297 300 285 265 206 19 322 56 354 320 276 142 130 127 94
115 118 113 34 71 118 116 38 180 291 203 135 143 172 157 166 173 175 180 194 199 258 234 215 227 90 359 325 289 252 292 269 238 258 5 354 142 245 353 353 158 118 87 101 97
83 87 75 33 75 114 83 42 252 65 57 127 148 158 162 143 150 166 197 263 220 235 290 243 179 28 29 228 320 352 214 290 332 353 32 19 7 17 13 35 93 87 87 83 76
62 72 61 68 84 86 13 302 25 48 343 128 147 126 106 139 242 188 221 273 122 205 315 340 84 127 271 326 276 188 235 302 261 210 35 17 53 50 51 49 80 85 90 94 88
52 82 29 93 82 81 22 30 65 358 2 140 24 54 132 143 207 207 147 45 97 39 49 353 277 21 321 298 241 245 318 346 240 354 51 63 43 56 28 67 78 75 80 93 90
359 77 3 101 84 22 16 49 342 338 338 21 350 120 109 133 56 228 90 90 39 86 43 341 264 322 245 188 6 258 328 265 272 166 47 71 34 47 68 66 85 89 88 84 92
42 72 360 4 45 12 11 350 335 321 91 324 319 43 91 146 41 35 71 62 107 85 274 202 326 307 91 167 266 280 300 317 24 347 59 94 60 114 90 96 96 93 93 82 72
72 46 9 6 65 70 320 353 322 341 42 16 13 34 346 55 53 60 84 11 322 326 359 345 15 319 146 178 270 323 360 338 353 21 332 90 116 91 102 100 93 92 87 92 87
129 93 23 336 259 106 32 5 354 57 15 4 327 339 270 61 18 119 102 139 294 11 295 284 24 23 88 140 271 343 7 14 38 55 77 98 122 104 83 92 99 94 87 86 83
358 101 195 186 91 97 83 277 53 50 31 327 283 1 338 95 89 51 54 190 192 263 297 43 38 16 69 64 29 22 30 20 50 86 98 130 120 137 141 131 116 119 115 93 82
130 150 178 89 79 89 24 210 63 54 18 22 24 25 49 44 360 85 349 10 41 347 54 58 154 271 54 26 66 59 26 22 11 73 99 110 100 99 102 114 113 119 118 101 92
279 349 106 43 333 239 126 34 70 345 83 26 341 342 53 7 354 33 63 70 70 12 12 28 51 8 355 3 333 25 5 45 18 29 76 129 133 122 121 103 94 89 82 91 89